User: anonymous   Login
Location: Unspecified
(0.0000°N, 0.0000°E)
Time: 11:09:20
(UTC+00:00)
Language:

LightSail 2 - Orbit

View from above orbital plane
View from above orbital plane
View from above satellite
View from above satellite

Ground track
Ground track

The orbit data is extracted from the following two-line orbital elements,

1 44420U 19036AC  19344.03479376  .00004821  00000-0  10718-2 0  9997
2 44420  24.0080 229.2543 0024199 213.4352 146.4561 14.53861120 22554
Epoch (UTC): 10 December 2019 00:50:06
Eccentricity: 0.0024199
inclination: 24.0080°
perigee height: 696 km
apogee height: 730 km
right ascension of ascending node: 229.2543°
argument of perigee: 213.4352°
revolutions per day: 14.53861120
mean anomaly at epoch: 146.4561°
orbit number at epoch: 2255

The dashed part of the orbit path shows where the satellite is in the earth's shadow,  

DLR